Location: Chuathbaluk
(61.5726°N, 159.2454°W)
Time: 17:29:46
(UTC+00:00)

ITAMSAT 1 - Pass Details

Date: 26 January 2021
Orbit: 784 x 796 km, 98.9° (Epoch: 05 March)

Event Time Altitude Azimuth Distance (km) Brightness Sun altitude
Rises 17:20:33 0° 19° (NNE) 3,292 10.9 -12.6°
Reaches altitude 10° 17:22:56 10° 24° (NNE) 2,359 10.2 -12.4°
Maximum altitude 17:28:04 58° 103° (ESE) 920 8.4 -11.8°
Drops below altitude 10° 17:33:10 10° 183° (S) 2,349 10.3 -11.2°
Sets 17:35:32 0° 187° (S) 3,275 11.0 -10.9°
